Fortuna, CA

11:25 AM PDT on August 21, 2017 (GMT -0700)
Rohnerville

Weather History for KFOT - November, 2012

Change the Weather History Date:

Saturday, November 17, 2012

  Actual Average (KEKA) Record (KEKA)
Temperature  
Mean Temperature 51 °F -  
Max Temperature 60 °F 57 °F 71 °F (1951)
Min Temperature 42 °F 44 °F 32 °F (2000)
Degree Days  
Heating Degree Days 14    
Growing Degree Days 1 (Base 50)    
Moisture  
Dew Point 49 °F    
Average Humidity 91    
Maximum Humidity 100    
Minimum Humidity 68    
Precipitation  
Precipitation 0.47 in - - ()
Sea Level Pressure  
Sea Level Pressure 29.84 in    
Wind  
Wind Speed 10 mph ()    
Max Wind Speed 18 mph    
Max Gust Speed 28 mph    
Visibility 7.7 miles    
Events      
Averages and records for this station are not official NWS values.
T = Trace of Precipitation, MM = Missing Value Source: Averaged Metar Reports

Daily Weather History Graph

Daily Weather History Graph

Search for Another Location

Airport or City:

Trip Planner

Search our weather history database for the weather conditions in past years. The results will help you decide how hot, cold, wet, or windy it might be!

Date:

Astronomy

Nov. 17, 2012 Rise Set
Actual Time 7:05 AM PST 4:56 PM PST
Civil Twilight 6:36 AM PST 5:26 PM PST
Nautical Twilight 6:03 AM PST 5:59 PM PST
Astronomical Twilight 5:30 AM PST 6:31 PM PST
Moon 10:55 AM PST (11/17) 9:13 PM PST (11/17)
Length of Visible Light 10h 49m
Length of Day
9h 50m
Waxing Crescent, 21% of the Moon is Illuminated
Nov 17
Waxing Crescent
Nov 20
First Quarter
Nov 28
Full
Dec 6
Last Quarter
Dec 13
New

Hourly Weather History & Observations

Time (PST) Temp. Windchill Dew Point Humidity Pressure Visibility Wind Dir Wind Speed Gust Speed Precip Events Conditions
12:15 AM 57.2 °F - 53.6 °F 88% 29.80 in 10.0 mi ESE 16.1 mph 20.7 mph N/A   Overcast
12:35 AM 57.2 °F - 53.6 °F 88% 29.80 in 10.0 mi ESE 15.0 mph - N/A   Overcast
12:55 AM 57.2 °F - 51.8 °F 82% 29.79 in 10.0 mi SE 13.8 mph - N/A   Overcast
1:15 AM 57.2 °F - 51.8 °F 82% 29.77 in 10.0 mi SE 11.5 mph - N/A   Mostly Cloudy
1:35 AM 57.2 °F - 51.8 °F 82% 29.77 in 10.0 mi SE 15.0 mph - N/A   Mostly Cloudy
1:55 AM 57.2 °F - 51.8 °F 82% 29.77 in 10.0 mi SE 12.7 mph - N/A   Overcast
2:15 AM 57.2 °F - 50.0 °F 77% 29.77 in 10.0 mi SE 13.8 mph - N/A   Overcast
2:35 AM 57.2 °F - 50.0 °F 77% 29.77 in 10.0 mi ESE 12.7 mph - N/A   Overcast
2:55 AM 57.2 °F - 50.0 °F 77% 29.76 in 10.0 mi ESE 11.5 mph - N/A   Overcast
3:15 AM 57.2 °F - 50.0 °F 77% 29.76 in 10.0 mi SE 15.0 mph - N/A   Overcast
3:35 AM 57.2 °F - 50.0 °F 77% 29.75 in 10.0 mi SE 13.8 mph - N/A   Overcast
3:55 AM 57.2 °F - 50.0 °F 77% 29.74 in 10.0 mi SE 13.8 mph - N/A   Overcast
4:15 AM 57.2 °F - 50.0 °F 77% 29.74 in 10.0 mi SE 15.0 mph - N/A   Overcast
4:35 AM 57.2 °F - 50.0 °F 77% 29.74 in 10.0 mi SE 16.1 mph - N/A   Mostly Cloudy
4:55 AM 57.2 °F - 50.0 °F 77% 29.74 in 10.0 mi ESE 17.3 mph - N/A   Mostly Cloudy
5:15 AM 55.4 °F - 50.0 °F 82% 29.73 in 10.0 mi ESE 17.3 mph - N/A   Scattered Clouds
5:35 AM 55.4 °F - 51.8 °F 88% 29.74 in 10.0 mi SE 16.1 mph - N/A   Mostly Cloudy
5:55 AM 55.4 °F - 51.8 °F 88% 29.74 in 10.0 mi ESE 15.0 mph - N/A   Overcast
6:15 AM 55.4 °F - 51.8 °F 88% 29.74 in 10.0 mi ESE 13.8 mph - N/A   Overcast
6:35 AM 55.4 °F - 51.8 °F 88% 29.75 in 10.0 mi SE 11.5 mph - N/A   Overcast
6:55 AM 55.4 °F - 51.8 °F 88% 29.74 in 10.0 mi SE 11.5 mph - N/A   Mostly Cloudy
7:15 AM 55.4 °F - 53.6 °F 94% 29.75 in 10.0 mi ESE 11.5 mph - N/A   Mostly Cloudy
7:35 AM 55.4 °F - 53.6 °F 94% 29.76 in 10.0 mi ESE 10.4 mph - N/A   Overcast
7:55 AM 55.4 °F - 53.6 °F 94% 29.77 in 10.0 mi SE 5.8 mph - N/A   Overcast
8:15 AM 55.4 °F - 53.6 °F 94% 29.78 in 8.0 mi SE 8.1 mph - N/A   Overcast
8:35 AM 55.4 °F - 55.4 °F 100% 29.78 in 10.0 mi SE 9.2 mph - N/A   Mostly Cloudy
9:15 AM 55.4 °F - 55.4 °F 100% 29.78 in 10.0 mi Calm Calm - N/A   Scattered Clouds
9:35 AM 57.2 °F - 53.6 °F 88% 29.78 in 10.0 mi SSW 10.4 mph - N/A   Clear
9:55 AM 59.0 °F - 50.0 °F 72% 29.79 in 10.0 mi South 10.4 mph - N/A   Mostly Cloudy
10:15 AM 59.0 °F - 50.0 °F 72% 29.80 in 10.0 mi South 10.4 mph - N/A   Mostly Cloudy
10:35 AM 59.0 °F - 51.8 °F 77% 29.80 in 10.0 mi South 6.9 mph - N/A   Mostly Cloudy
10:55 AM 59.0 °F - 50.0 °F 72% 29.80 in 10.0 mi South 8.1 mph 16.1 mph N/A   Mostly Cloudy
11:15 AM 59.0 °F - 50.0 °F 72% 29.78 in 10.0 mi South 10.4 mph - N/A   Mostly Cloudy
11:35 AM 60.8 °F - 50.0 °F 68% 29.77 in 10.0 mi SSE 16.1 mph 20.7 mph N/A   Mostly Cloudy
11:55 AM 59.0 °F - 50.0 °F 72% 29.76 in 9.0 mi SE 15.0 mph 20.7 mph N/A   Mostly Cloudy
12:15 PM 57.2 °F - 53.6 °F 88% 29.75 in 7.0 mi SE 15.0 mph 21.9 mph N/A   Overcast
12:35 PM 57.2 °F - 53.6 °F 88% 29.75 in 7.0 mi SE 13.8 mph - N/A   Overcast
12:55 PM 55.4 °F - 55.4 °F 100% 29.80 in 1.2 mi WNW 18.4 mph 27.6 mph 0.13 in   Overcast
1:15 PM 48.2 °F - 48.2 °F 100% 29.82 in 2.5 mi NW 13.8 mph 24.2 mph 0.06 in   Overcast
1:35 PM 48.2 °F - 48.2 °F 100% 29.84 in 3.0 mi NNW 8.1 mph - 0.13 in   Overcast
1:55 PM 48.2 °F - 48.2 °F 100% 29.84 in 3.0 mi North 6.9 mph - 0.23 in   Overcast
2:15 PM 48.2 °F - 48.2 °F 100% 29.83 in 5.0 mi Calm Calm - 0.02 in   Overcast
2:35 PM 48.2 °F - 48.2 °F 100% 29.84 in 3.0 mi Calm Calm - 0.05 in   Mostly Cloudy
2:55 PM 48.2 °F - 48.2 °F 100% 29.85 in 5.0 mi Calm Calm - 0.08 in   Overcast
3:15 PM 48.2 °F - 48.2 °F 100% 29.86 in 4.0 mi SSE 3.5 mph - 0.02 in   Overcast
3:35 PM 48.2 °F - 48.2 °F 100% 29.86 in 9.0 mi Calm Calm - 0.03 in   Overcast
3:55 PM 48.2 °F - 48.2 °F 100% 29.86 in 10.0 mi Calm Calm - 0.03 in   Mostly Cloudy
4:15 PM 48.2 °F - 48.2 °F 100% 29.87 in 10.0 mi Calm Calm - N/A   Mostly Cloudy
4:35 PM 48.2 °F - 48.2 °F 100% 29.88 in 10.0 mi Calm Calm - N/A   Mostly Cloudy
4:55 PM 48.2 °F - 48.2 °F 100% 29.88 in 10.0 mi Calm Calm - N/A   Scattered Clouds
5:15 PM 48.2 °F - 48.2 °F 100% 29.89 in 10.0 mi Calm Calm - N/A   Clear
5:35 PM 46.4 °F - 46.4 °F 100% 29.90 in 10.0 mi Calm Calm - N/A   Clear
5:55 PM 46.4 °F - 46.4 °F 100% 29.90 in 10.0 mi Calm Calm - N/A   Clear
6:15 PM 46.4 °F 44.3 °F 46.4 °F 100% 29.91 in 1.5 mi SE 4.6 mph - N/A   Scattered Clouds
6:55 PM 46.4 °F 44.3 °F 46.4 °F 100% 29.93 in 0.2 mi SE 4.6 mph - N/A   Overcast
7:15 PM 44.6 °F 40.2 °F 44.6 °F 100% 29.95 in 0.2 mi ESE 8.1 mph - N/A   Overcast
7:35 PM 44.6 °F 39.7 °F 44.6 °F 100% 29.95 in 0.2 mi ESE 9.2 mph - N/A   Overcast
7:55 PM 46.4 °F 42.4 °F 46.4 °F 100% 29.95 in 0.2 mi SE 8.1 mph - N/A   Overcast
8:15 PM 46.4 °F 41.9 °F 46.4 °F 100% 29.95 in 0.2 mi SE 9.2 mph - N/A   Overcast
8:35 PM 44.6 °F 39.7 °F 44.6 °F 100% 29.96 in 1.0 mi SE 9.2 mph - N/A   Overcast
8:55 PM 44.6 °F 40.2 °F 44.6 °F 100% 29.96 in 1.0 mi SE 8.1 mph - N/A   Overcast
9:15 PM 44.6 °F 39.7 °F 44.6 °F 100% 29.97 in 0.8 mi SE 9.2 mph - N/A   Overcast
9:35 PM 44.6 °F 39.2 °F 44.6 °F 100% 29.97 in 0.8 mi ESE 10.4 mph - N/A   Mostly Cloudy
9:55 PM 44.6 °F 38.8 °F 44.6 °F 100% 29.98 in 10.0 mi SE 11.5 mph - N/A   Partly Cloudy
10:15 PM 44.6 °F 39.2 °F 44.6 °F 100% 29.99 in 9.0 mi SE 10.4 mph - N/A   Partly Cloudy
10:35 PM 44.6 °F 38.4 °F 44.6 °F 100% 29.99 in 10.0 mi ESE 12.7 mph - N/A   Scattered Clouds
10:55 PM 44.6 °F 38.8 °F 44.6 °F 100% 29.99 in 10.0 mi ESE 11.5 mph - N/A   Partly Cloudy
11:15 PM 42.8 °F 36.2 °F 42.8 °F 100% 30.00 in 10.0 mi ESE 12.7 mph - N/A   Clear
11:35 PM 42.8 °F 36.2 °F 42.8 °F 100% 30.00 in 10.0 mi ESE 12.7 mph - N/A   Partly Cloudy
11:55 PM 42.8 °F 36.6 °F 42.8 °F 100% 30.01 in 10.0 mi ESE 11.5 mph - N/A   Partly Cloudy